�������l�o���
Date,Time,MP-1(��Sv/h),MP-2(��Sv/h),MP-3(��Sv/h),MP-4(��Sv/h),MP-5(��Sv/h),MP-6(��Sv/h),MP-7(��Sv/h),MP-8(��Sv/h),����,����(m/s),���J
2019/06/08,00:00,0.733,1.037,0.732,1.319,0.978,0.430,0.747,0.705,�k�k��,8.0,�L
2019/06/08,00:10,0.733,1.038,0.731,1.320,0.974,0.427,0.746,0.707,�k�k��,7.2,�L
2019/06/08,00:20,0.731,1.037,0.730,1.318,0.975,0.429,0.746,0.708,�k�k��,8.8,�L
2019/06/08,00:30,0.729,1.038,0.731,1.318,0.974,0.428,0.746,0.705,�k�k��,8.0,�L
2019/06/08,00:40,0.731,1.038,0.731,1.315,0.973,0.429,0.745,0.707,�k�k��,7.9,�L
2019/06/08,00:50,0.731,1.039,0.732,1.319,0.974,0.429,0.747,0.708,�k�k��,7.6,�L
2019/06/08,01:00,0.732,1.040,0.734,1.320,0.973,0.429,0.745,0.708,�k�k��,7.9,�L
2019/06/08,01:10,0.730,1.039,0.734,1.318,0.975,0.429,0.745,0.709,�k�k��,8.5,�L
2019/06/08,01:20,0.733,1.038,0.731,1.320,0.974,0.427,0.746,0.707,�k�k��,8.0,�L
2019/06/08,01:30,0.732,1.039,0.733,1.317,0.974,0.428,0.743,0.708,�k,6.9,�L
2019/06/08,01:40,0.731,1.040,0.732,1.318,0.974,0.426,0.746,0.706,�k�k��,6.0,�L
2019/06/08,01:50,0.729,1.038,0.733,1.318,0.971,0.429,0.745,0.707,�k�k��,6.1,�L
2019/06/08,02:00,0.732,1.039,0.732,1.317,0.975,0.427,0.746,0.708,�k�k��,6.9,�L
2019/06/08,02:10,0.731,1.040,0.733,1.317,0.974,0.428,0.743,0.708,�k�k��,6.6,�L
2019/06/08,02:20,0.731,1.037,0.733,1.317,0.974,0.429,0.746,0.710,�k�k��,7.2,�L
2019/06/08,02:30,0.730,1.037,0.732,1.318,0.974,0.429,0.744,0.708,�k�k��,6.4,�L
2019/06/08,02:40,0.732,1.038,0.731,1.318,0.975,0.427,0.744,0.709,�k�k��,6.0,�L
2019/06/08,02:50,0.732,1.037,0.732,1.314,0.973,0.428,0.745,0.709,�k�k��,6.0,�L
2019/06/08,03:00,0.731,1.038,0.732,1.319,0.973,0.428,0.745,0.709,�k��,6.6,�L
2019/06/08,03:10,0.732,1.038,0.731,1.316,0.973,0.428,0.745,0.709,�k��,6.8,�L
2019/06/08,03:20,0.730,1.039,0.733,1.317,0.973,0.427,0.745,0.707,�k��,8.7,�L
2019/06/08,03:30,0.729,1.038,0.732,1.318,0.976,0.427,0.744,0.709,�k�k��,9.0,�L
2019/06/08,03:40,0.730,1.039,0.732,1.318,0.974,0.428,0.746,0.710,�k��,8.7,�L
2019/06/08,03:50,0.732,1.037,0.731,1.318,0.975,0.426,0.744,0.709,�k�k��,8.6,�L
2019/06/08,04:00,0.731,1.040,0.731,1.319,0.976,0.428,0.745,0.709,�k�k��,7.6,��
2019/06/08,04:10,0.732,1.038,0.732,1.316,0.978,0.429,0.747,0.709,�k��,7.1,��
2019/06/08,04:20,0.731,1.041,0.732,1.317,0.977,0.428,0.745,0.711,�k�k��,6.3,��
2019/06/08,04:30,0.731,1.038,0.732,1.318,0.975,0.427,0.744,0.711,�k�k��,6.9,��
2019/06/08,04:40,0.731,1.040,0.732,1.318,0.976,0.427,0.745,0.711,�k�k��,8.7,��
2019/06/08,04:50,0.732,1.043,0.731,1.318,0.976,0.427,0.747,0.710,�k�k��,8.0,��
2019/06/08,05:00,0.731,1.042,0.730,1.316,0.977,0.427,0.746,0.712,�k�k��,7.0,�L
2019/06/08,05:10,0.734,1.042,0.730,1.319,0.977,0.429,0.744,0.710,�k�k��,6.9,�L
2019/06/08,05:20,0.731,1.043,0.731,1.317,0.976,0.426,0.747,0.709,�k�k��,7.9,�L
2019/06/08,05:30,0.733,1.042,0.732,1.320,0.976,0.428,0.745,0.709,�k�k��,8.6,�L
2019/06/08,05:40,0.731,1.042,0.731,1.317,0.974,0.427,0.746,0.710,�k�k��,8.3,�L
2019/06/08,05:50,0.731,1.041,0.732,1.320,0.977,0.427,0.746,0.712,�k�k��,7.7,�L
2019/06/08,06:00,0.731,1.040,0.731,1.319,0.977,0.427,0.747,0.709,�k�k��,9.1,�L
2019/06/08,06:10,0.732,1.042,0.731,1.319,0.973,0.427,0.745,0.711,�k�k��,8.1,�L
2019/06/08,06:20,0.731,1.040,0.732,1.319,0.973,0.426,0.746,0.709,�k�k��,7.9,�L
2019/06/08,06:30,0.731,1.039,0.732,1.319,0.976,0.428,0.744,0.711,�k�k��,8.6,�L
2019/06/08,06:40,0.728,1.040,0.733,1.318,0.974,0.426,0.743,0.710,�k�k��,8.4,�L
2019/06/08,06:50,0.730,1.037,0.731,1.318,0.973,0.427,0.745,0.709,�k�k��,9.5,�L
2019/06/08,07:00,0.728,1.038,0.730,1.317,0.972,0.427,0.746,0.708,�k�k��,8.8,�L
2019/06/08,07:10,0.729,1.036,0.730,1.316,0.976,0.426,0.746,0.709,�k,8.2,�L
2019/06/08,07:20,0.728,1.033,0.726,1.315,0.973,0.427,0.745,0.708,�k,8.1,�L
2019/06/08,07:30,0.728,1.035,0.731,1.313,0.969,0.424,0.744,0.707,�k,7.7,�L
2019/06/08,07:40,0.726,1.032,0.728,1.310,0.965,0.428,0.745,0.706,�k�k��,8.9,�L
2019/06/08,07:50,0.727,1.030,0.728,1.309,0.965,0.427,0.745,0.708,�k�k��,8.3,�L
2019/06/08,08:00,0.726,1.031,0.729,1.306,0.965,0.426,0.743,0.706,�k,7.3,�L
2019/06/08,08:10,0.725,1.028,0.727,1.304,0.965,0.427,0.742,0.704,�k,6.7,�L
2019/06/08,08:20,0.728,1.028,0.726,1.305,0.963,0.427,0.742,0.706,�k,4.7,�L
2019/06/08,08:30,0.726,1.026,0.727,1.299,0.961,0.427,0.742,0.703,�k�k��,8.9,�L
2019/06/08,08:40,0.725,1.021,0.726,1.300,0.960,0.426,0.739,0.704,�k�k��,6.6,�L
2019/06/08,08:50,0.728,1.025,0.728,1.300,0.962,0.427,0.740,0.702,�k�k��,7.2,�L
2019/06/08,09:00,0.729,1.025,0.728,1.298,0.962,0.431,0.740,0.704,�k�k��,7.0,�L
2019/06/08,09:10,0.729,1.024,0.726,1.297,0.961,0.431,0.739,0.704,�k�k��,6.2,�L
2019/06/08,09:20,0.727,1.021,0.728,1.294,0.958,0.431,0.738,0.704,�k�k��,6.4,�L
2019/06/08,09:30,0.727,1.022,0.729,1.294,0.960,0.431,0.738,0.702,�k,6.8,�L
2019/06/08,09:40,0.731,1.025,0.729,1.298,0.962,0.431,0.740,0.704,�k�k��,7.1,�L
2019/06/08,09:50,0.730,1.027,0.731,1.300,0.963,0.433,0.741,0.706,�k,6.9,�L
2019/06/08,10:00,0.730,1.028,0.731,1.299,0.963,0.432,0.740,0.705,�k�k��,6.2,�L
2019/06/08,10:10,0.729,1.028,0.729,1.304,0.962,0.430,0.740,0.705,�k�k��,5.2,�L
2019/06/08,10:20,0.729,1.030,0.729,1.303,0.963,0.431,0.739,0.705,�k�k��,5.9,�L
2019/06/08,10:30,0.726,1.028,0.728,1.303,0.964,0.429,0.739,0.706,�k,6.4,�L
2019/06/08,10:40,0.729,1.030,0.727,1.302,0.966,0.427,0.739,0.706,�k�k��,6.7,�L
2019/06/08,10:50,0.725,1.028,0.728,1.306,0.962,0.429,0.738,0.708,�k�k��,7.8,�L
2019/06/08,11:00,0.727,1.028,0.727,1.299,0.964,0.428,0.741,0.705,�k�k��,6.0,�L
2019/06/08,11:10,0.727,1.028,0.725,1.303,0.962,0.428,0.740,0.705,�k,5.9,�L
2019/06/08,11:20,0.726,1.030,0.727,1.300,0.961,0.427,0.740,0.705,�k,5.8,�L
2019/06/08,11:30,0.725,1.030,0.725,1.303,0.962,0.427,0.740,0.704,�k,5.6,�L
2019/06/08,11:40,0.725,1.026,0.725,1.304,0.961,0.426,0.740,0.706,�k�k��,5.6,�L
2019/06/08,11:50,0.727,1.022,0.726,1.303,0.963,0.427,0.739,0.704,�k�k��,7.1,�L
2019/06/08,12:00,0.725,1.027,0.725,1.300,0.959,0.426,0.739,0.705,�k,6.6,�L
2019/06/08,12:10,0.724,1.026,0.724,1.298,0.959,0.426,0.738,0.703,�k,5.7,�L
2019/06/08,12:20,0.724,1.024,0.723,1.300,0.959,0.426,0.739,0.703,�k,6.7,�L
2019/06/08,12:30,0.726,1.027,0.723,1.301,0.958,0.426,0.741,0.704,�k,7.4,�L
2019/06/08,12:40,0.724,1.026,0.724,1.301,0.959,0.427,0.739,0.706,�k,6.1,�L
2019/06/08,12:50,0.723,1.028,0.720,1.304,0.959,0.427,0.739,0.703,�k,6.6,�L
2019/06/08,13:00,0.726,1.025,0.723,1.301,0.958,0.426,0.740,0.703,�k�k��,7.9,�L
2019/06/08,13:10,0.725,1.025,0.722,1.299,0.958,0.429,0.739,0.702,�k,6.7,�L
2019/06/08,13:20,0.723,1.023,0.722,1.297,0.956,0.427,0.739,0.703,�k,7.1,�L
2019/06/08,13:30,0.722,1.021,0.723,1.299,0.955,0.428,0.737,0.705,�k,7.0,�L
2019/06/08,13:40,0.723,1.024,0.722,1.296,0.958,0.427,0.738,0.704,�k�k��,6.0,�L
2019/06/08,13:50,0.723,1.023,0.721,1.295,0.958,0.426,0.739,0.703,�k�k��,4.9,�L
2019/06/08,14:00,0.722,1.024,0.721,1.299,0.957,0.424,0.739,0.704,�k�k��,5.0,�L
2019/06/08,14:10,0.721,1.024,0.722,1.299,0.958,0.426,0.739,0.703,�k�k��,4.9,�L
2019/06/08,14:20,0.725,1.023,0.723,1.299,0.958,0.428,0.737,0.704,�k�k��,4.1,�L
2019/06/08,14:30,0.723,1.025,0.725,1.301,0.961,0.429,0.739,0.703,�k,4.9,�L
2019/06/08,14:40,0.723,1.026,0.723,1.299,0.959,0.427,0.739,0.704,�k,6.5,�L
2019/06/08,14:50,0.722,1.024,0.725,1.299,0.959,0.427,0.739,0.705,�k,7.2,�L
2019/06/08,15:00,0.723,1.028,0.723,1.302,0.958,0.426,0.740,0.704,�k,6.1,�L
2019/06/08,15:10,0.725,1.029,0.721,1.301,0.959,0.428,0.740,0.703,�k,6.5,��
2019/06/08,15:20,0.726,1.027,0.725,1.300,0.961,0.426,0.739,0.705,�k,7.1,��
2019/06/08,15:30,0.725,1.031,0.722,1.302,0.962,0.426,0.740,0.706,�k,6.0,��
2019/06/08,15:40,0.726,1.028,0.721,1.303,0.960,0.426,0.741,0.706,�k,5.2,��
2019/06/08,15:50,0.722,1.028,0.725,1.304,0.963,0.425,0.739,0.705,�k,4.8,��
2019/06/08,16:00,0.722,1.028,0.721,1.302,0.963,0.425,0.739,0.706,�k,3.8,��
2019/06/08,16:10,0.723,1.030,0.722,1.304,0.961,0.425,0.742,0.703,�k,3.7,��
2019/06/08,16:20,0.725,1.031,0.722,1.301,0.962,0.425,0.740,0.704,�k,4.2,��
2019/06/08,16:30,0.724,1.031,0.721,1.304,0.962,0.425,0.742,0.706,�k,3.9,��
2019/06/08,16:40,0.725,1.030,0.720,1.304,0.961,0.424,0.741,0.704,�k,3.8,��
2019/06/08,16:50,0.725,1.031,0.720,1.306,0.962,0.425,0.742,0.706,�k,4.7,��
2019/06/08,17:00,0.725,1.029,0.721,1.306,0.961,0.423,0.742,0.705,�k,6.4,��
2019/06/08,17:10,0.725,1.032,0.719,1.306,0.962,0.423,0.742,0.704,�k�k��,6.4,��
2019/06/08,17:20,0.725,1.030,0.721,1.307,0.963,0.424,0.742,0.706,�k�k��,6.9,��
2019/06/08,17:30,0.723,1.031,0.720,1.305,0.966,0.425,0.743,0.705,�k�k��,8.2,��
2019/06/08,17:40,0.724,1.033,0.722,1.306,0.963,0.422,0.740,0.705,�k�k��,7.2,��
2019/06/08,17:50,0.723,1.032,0.721,1.307,0.964,0.423,0.740,0.705,�k��,7.9,��
2019/06/08,18:00,0.723,1.033,0.721,1.306,0.962,0.422,0.742,0.704,�k��,8.0,��
2019/06/08,18:10,0.723,1.029,0.721,1.307,0.963,0.422,0.741,0.704,�k�k��,8.5,��
2019/06/08,18:20,0.725,1.032,0.722,1.308,0.963,0.422,0.742,0.706,�k�k��,8.0,��
2019/06/08,18:30,0.723,1.033,0.724,1.304,0.963,0.422,0.741,0.704,�k�k��,8.0,�L
2019/06/08,18:40,0.724,1.035,0.723,1.309,0.964,0.423,0.740,0.705,�k�k��,7.6,�L
2019/06/08,18:50,0.725,1.035,0.723,1.306,0.962,0.424,0.741,0.704,�k,7.9,�L
2019/06/08,19:00,0.726,1.033,0.726,1.306,0.963,0.425,0.740,0.703,�k,7.4,�L
2019/06/08,19:10,0.727,1.033,0.725,1.308,0.962,0.425,0.741,0.704,�k,5.8,�L
2019/06/08,19:20,0.725,1.034,0.723,1.308,0.965,0.426,0.741,0.704,�k�k��,6.3,��
2019/06/08,19:30,0.726,1.033,0.725,1.308,0.964,0.425,0.741,0.703,�k,5.7,��
2019/06/08,19:40,0.727,1.035,0.724,1.309,0.964,0.426,0.741,0.706,�k�k��,6.2,��
2019/06/08,19:50,0.726,1.036,0.723,1.306,0.966,0.426,0.741,0.705,�k,4.6,�L
2019/06/08,20:00,0.727,1.035,0.723,1.308,0.966,0.426,0.742,0.707,�k,4.6,�L
2019/06/08,20:10,0.727,1.037,0.723,1.307,0.965,0.426,0.739,0.706,�k,5.3,�L
2019/06/08,20:20,0.726,1.037,0.723,1.307,0.964,0.425,0.741,0.707,�k�k��,6.2,��
2019/06/08,20:30,0.728,1.036,0.725,1.308,0.968,0.425,0.739,0.705,�k�k��,6.8,��
2019/06/08,20:40,0.728,1.037,0.724,1.309,0.967,0.424,0.741,0.705,�k�k��,4.9,��
2019/06/08,20:50,0.726,1.038,0.726,1.307,0.965,0.425,0.740,0.707,�k�k��,5.7,��
2019/06/08,21:00,0.726,1.038,0.722,1.309,0.966,0.426,0.741,0.705,�k�k��,6.7,��
2019/06/08,21:10,0.728,1.038,0.724,1.309,0.967,0.424,0.741,0.705,�k�k��,7.2,��
2019/06/08,21:20,0.726,1.039,0.722,1.309,0.966,0.423,0.741,0.707,�k�k��,7.7,��
2019/06/08,21:30,0.728,1.041,0.726,1.310,0.969,0.424,0.739,0.709,�k,6.7,��
2019/06/08,21:40,0.727,1.038,0.723,1.310,0.965,0.425,0.742,0.706,�k,6.9,��
2019/06/08,21:50,0.728,1.040,0.725,1.310,0.967,0.426,0.740,0.707,�k�k��,6.0,��
2019/06/08,22:00,0.728,1.038,0.724,1.309,0.968,0.425,0.742,0.708,�k,4.8,��
2019/06/08,22:10,0.727,1.040,0.725,1.308,0.965,0.424,0.742,0.705,�k,3.9,��
2019/06/08,22:20,0.726,1.038,0.726,1.311,0.965,0.425,0.741,0.706,�k,5.0,��
2019/06/08,22:30,0.727,1.040,0.726,1.315,0.967,0.424,0.741,0.707,�k,6.1,��
2019/06/08,22:40,0.728,1.038,0.725,1.311,0.966,0.424,0.742,0.707,�k,4.6,��
2019/06/08,22:50,0.728,1.039,0.726,1.312,0.970,0.424,0.741,0.709,�k,6.0,��
2019/06/08,23:00,0.728,1.040,0.726,1.312,0.968,0.425,0.743,0.707,�k�k��,4.9,��
2019/06/08,23:10,0.729,1.038,0.723,1.310,0.966,0.425,0.743,0.708,�k,4.1,��
2019/06/08,23:20,0.728,1.038,0.725,1.312,0.970,0.425,0.742,0.705,�k,5.0,��
2019/06/08,23:30,0.727,1.038,0.723,1.310,0.968,0.424,0.743,0.709,�k�k��,5.1,��
2019/06/08,23:40,0.728,1.039,0.725,1.312,0.967,0.425,0.744,0.708,�k,3.9,��
2019/06/08,23:50,0.728,1.040,0.723,1.311,0.968,0.424,0.740,0.707,�k�k��,4.0,��
